ARIANE 44LP DEB, 25539

Orbit data source: Space-Track

ARIANE 44LP DEB, 25539 is space debris in HEO originally from a launch on Sun, 11 Dec 1988 UTC launched from the French Guiana (FRGUI). Debris objects in space refer to the collection of defunct objects orbiting the Earth. Examples of debris include non-operational satellites, rocket bodies, and fragments generated from explosions, collisions, or faulty payload assembly.

Loading next visibility...
Identifier
25539, 1988-109F
Orbit
HEO
Country
Flag of FRFR
Related business
Manufacturer
Unknown
Mission
Spacecraft
Bus & Motor
Unknown
Mass
Unknown
Launch date (UTC)
1988-12-11 (37 years ago)
Launch vehicle
Unknown
Launch site
French Guiana (FRGUI)
Object type
Payload
Rocket body
Debris
Shape & HBR
Unknown shape, 0.4 m
Radar Cross Section
Medium (>0.1 m² and <1 m²)

Expand to show TLE details & history
Last TLE update: 19 hours ago

TLE from 19 hours ago
0 ARIANE 44LP DEB
1 25539U 88109F   26125.26558095  .00000807  00000-0  26799-2 0  9996
2 25539   7.1845 336.2105 6802061 200.6857 106.7163  2.78493269259844
Epoch: 2026-05-05T06:22Z
TLE epoch observation values (Epoch: 2026-05-05T06:22:26.194Z)
Latitude
-0.00006°
Longitude
17.42325°
Altitude
25,112.134 km
Speed
2.576 km/s
True Right ascension
22h 24m 42s
True Declination
0° 00' 00"
Sunlit
Object was in daylight at epoch
Visualization orbit readout
Latitude
Unknown
Longitude
Unknown
Altitude
Unknown
Speed
Unknown
Apparent Right ascension
Unknown
Apparent Declination
Unknown
Sunlit
N/A
Visualization observer readout
Local Sidereal Time
09:46:53
Azimuth
Unknown
Elevation
Unknown
Doppler factor
Unknown
Orbital elements
Apogee altitude
29,485.886 km
Perigee altitude
447.868 km
Semi-major axis
21,345.014 km
Eccentricity
0.68021
Inclination
7.1845°
RAAN
336.2105°
Arg. of periapsis
200.6857°
True anomaly
159.27024°
Mean anomaly
106.7163°
Eccentric anomaly
134.50932°
Mean motion
0.69598 °/min
Orbital period
517.25 mins
BSTAR
0.0026799
Loading maneuver chart data...
Computing Atmospheric mass density...
Loading historical data...
Loading historical data...
Loading historical data...
Loading historical data...
Loading historical data...
Loading historical data...
Loading historical data...

Documentation

Showing up to 5 results
|